| time (UTC) | temp F | wind direction | speed MPH | gust MPH | rain 1hr in | rain 24hr in | rain mn in | humidity % | barometer mb |
| 20260503213527 | 70 | 202 | 0.0 | 0.0 | 0.00 | 0.00 | 0.00 | 38 | 1017.9 |
| 20260503213024 | 70 | 202 | 0.0 | 1.0 | 0.00 | 0.00 | 0.00 | 39 | 1018.0 |
| 20260503212524 | 70 | 146 | 0.0 | 0.0 | 0.00 | 0.00 | 0.00 | 38 | 1018.0 |
| 20260503211504 | 70 | 141 | 0.0 | 0.0 | 0.00 | 0.00 | 0.00 | 39 | 1018.1 |
| 20260503211001 | 70 | 141 | 0.0 | 0.0 | 0.00 | 0.00 | 0.00 | 41 | 1018.2 |
| 20260503210438 | 70 | 142 | 0.0 | 0.0 | 0.00 | 0.00 | 0.00 | 37 | 1018.2 |
| 20260503205938 | 70 | 142 | 0.0 | 0.0 | 0.00 | 0.00 | 0.00 | 36 | 1018.3 |
| 20260503205437 | 70 | 142 | 0.0 | 0.0 | 0.00 | 0.00 | 0.00 | 38 | 1018.4 |
| 20260503204935 | 70 | 142 | 0.0 | 0.0 | 0.00 | 0.00 | 0.00 | 37 | 1018.4 |
| 20260503204435 | 70 | 141 | 0.0 | 0.0 | 0.00 | 0.00 | 0.00 | 37 | 1018.5 |
| 20260503203921 | 70 | 142 | 0.0 | 0.0 | 0.00 | 0.00 | 0.00 | 37 | 1018.6 |
| 20260503203415 | 70 | 142 | 0.0 | 0.0 | 0.00 | 0.00 | 0.00 | 40 | 1018.7 |
| 20260503202911 | 70 | 141 | 0.0 | 0.0 | 0.00 | 0.00 | 0.00 | 36 | 1018.8 |
| 20260503202406 | 70 | 142 | 0.0 | 0.0 | 0.00 | 0.00 | 0.00 | 36 | 1018.9 |
| 20260503201840 | 70 | 142 | 0.0 | 0.0 | 0.00 | 0.00 | 0.00 | 33 | 1019.1 |
| 20260503201341 | 70 | 142 | 0.0 | 0.0 | 0.00 | 0.00 | 0.00 | 36 | 1019.1 |
| 20260503200834 | 71 | 142 | 0.0 | 0.0 | 0.00 | 0.00 | 0.00 | 37 | 1019.2 |
| 20260503200304 | 71 | 142 | 0.0 | 0.0 | 0.00 | 0.00 | 0.00 | 40 | 1019.2 |
| 20260503195802 | 71 | 142 | 0.0 | 0.0 | 0.00 | 0.00 | 0.00 | 37 | 1019.2 |
| 20260503194701 | 71 | 142 | 0.0 | 0.0 | 0.00 | 0.00 | 0.00 | 37 | 1019.5 |
| 20260503193648 | 71 | 143 | 0.0 | 0.0 | 0.00 | 0.00 | 0.00 | 35 | 1019.8 |
| 20260503193144 | 71 | 99 | 0.0 | 0.0 | 0.00 | 0.00 | 0.00 | 37 | 1020.0 |
| 20260503192641 | 71 | 99 | 0.0 | 1.0 | 0.00 | 0.00 | 0.00 | 36 | 1019.9 |
| 20260503192127 | 71 | 89 | 0.0 | 1.0 | 0.00 | 0.00 | 0.00 | 36 | 1020.0 |
| 20260503191626 | 71 | 307 | 0.0 | 0.0 | 0.00 | 0.00 | 0.00 | 37 | 1020.1 |
| 20260503191124 | 71 | 304 | 0.0 | 0.0 | 0.00 | 0.00 | 0.00 | 36 | 1020.1 |
| 20260503190621 | 71 | 211 | 0.0 | 0.0 | 0.00 | 0.00 | 0.00 | 36 | 1020.3 |
| 20260503190101 | 71 | 211 | 0.0 | 0.0 | 0.00 | 0.00 | 0.00 | 35 | 1020.3 |
| 20260503185548 | 71 | 211 | 0.0 | 0.0 | 0.00 | 0.00 | 0.00 | 36 | 1020.4 |
| 20260503185044 | 71 | 211 | 0.0 | 0.0 | 0.00 | 0.00 | 0.00 | 37 | 1020.6 |
| 20260503184541 | 71 | 201 | 0.0 | 0.0 | 0.00 | 0.00 | 0.00 | 36 | 1020.6 |
| 20260503184016 | 71 | 201 | 0.0 | 0.0 | 0.00 | 0.00 | 0.00 | 35 | 1020.7 |
| 20260503183506 | 71 | 201 | 0.0 | 0.0 | 0.00 | 0.00 | 0.00 | 38 | 1020.9 |
| 20260503182942 | 71 | 201 | 0.0 | 0.0 | 0.00 | 0.00 | 0.00 | 35 | 1020.9 |
| 20260503182439 | 70 | 98 | 0.0 | 0.0 | 0.00 | 0.00 | 0.00 | 35 | 1021.0 |
| 20260503181912 | 70 | 100 | 0.0 | 0.0 | 0.00 | 0.00 | 0.00 | 36 | 1021.0 |
| 20260503181409 | 71 | 51 | 0.0 | 0.0 | 0.00 | 0.00 | 0.00 | 35 | 1021.1 |
| 20260503180843 | 71 | 51 | 0.0 | 0.0 | 0.00 | 0.00 | 0.00 | 33 | 1021.1 |
| 20260503180321 | 71 | 51 | 0.0 | 0.0 | 0.00 | 0.00 | 0.00 | 36 | 1021.1 |
| 20260503175755 | 71 | 51 | 0.0 | 0.0 | 0.00 | 0.00 | 0.00 | 36 | 1021.3 |
| 20260503175230 | 70 | 51 | 0.0 | 0.0 | 0.00 | 0.00 | 0.00 | 38 | 1021.2 |
| 20260503174703 | 70 | 91 | 0.0 | 0.0 | 0.00 | 0.00 | 0.00 | 38 | 1021.3 |
| 20260503174158 | 70 | 91 | 0.0 | 0.0 | 0.00 | 0.00 | 0.00 | 38 | 1021.4 |
| 20260503173654 | 70 | 91 | 0.0 | 0.0 | 0.00 | 0.00 | 0.00 | 38 | 1021.4 |
| 20260503173144 | 70 | 91 | 0.0 | 0.0 | 0.00 | 0.00 | 0.00 | 38 | 1021.4 |
| 20260503172641 | 70 | 91 | 0.0 | 4.0 | 0.00 | 0.00 | 0.00 | 38 | 1021.5 |
| 20260503172115 | 69 | 196 | 0.0 | 0.0 | 0.00 | 0.00 | 0.00 | 37 | 1021.5 |
| 20260503171603 | 69 | 196 | 0.0 | 0.0 | 0.00 | 0.00 | 0.00 | 38 | 1021.6 |
| 20260503171105 | 69 | 316 | 0.0 | 0.0 | 0.00 | 0.00 | 0.00 | 36 | 1021.8 |
| 20260503170546 | 69 | 349 | 0.0 | 0.0 | 0.00 | 0.00 | 0.00 | 35 | 1021.8 |
| 20260503150732 | 64 | 159 | 0.0 | 0.0 | 0.00 | 0.00 | 0.00 | 50 | 1022.1 |
| 20260503150207 | 64 | 159 | 0.0 | 0.0 | 0.00 | 0.00 | 0.00 | 50 | 1022.1 |
| 20260503131323 | 49 | 159 | 0.0 | 0.0 | 0.00 | 0.00 | 0.00 | 98 | 1021.9 |
| 20260503130821 | 49 | 159 | 0.0 | 0.0 | 0.00 | 0.00 | 0.00 | 98 | 1021.9 |
| 20260503130321 | 48 | 159 | 0.0 | 0.0 | 0.00 | 0.00 | 0.00 | 98 | 1022.0 |
| 20260503120114 | 44 | 159 | 0.0 | 0.0 | 0.00 | 0.00 | 0.00 | 96 | 1021.6 |
| 20260503110534 | 44 | 159 | 0.0 | 0.0 | 0.00 | 0.00 | 0.00 | 95 | 1020.9 |
| 20260503100228 | 44 | 159 | 0.0 | 0.0 | 0.00 | 0.00 | 0.00 | 95 | 1020.3 |
| 20260503090446 | 46 | 159 | 0.0 | 0.0 | 0.00 | 0.00 | 0.00 | 95 | 1020.1 |
| 20260503081323 | 46 | 159 | 0.0 | 0.0 | 0.00 | 0.01 | 0.00 | 95 | 1019.7 |
| 20260503080825 | 46 | 159 | 0.0 | 0.0 | 0.00 | 0.01 | 0.00 | 94 | 1019.7 |
| 20260503080321 | 46 | 159 | 0.0 | 0.0 | 0.00 | 0.01 | 0.00 | 94 | 1019.6 |
| 20260503072654 | 47 | 159 | 0.0 | 0.0 | 0.00 | 0.01 | 0.00 | 94 | 1019.4 |
| 20260503072132 | 47 | 159 | 0.0 | 0.0 | 0.00 | 0.01 | 0.00 | 94 | 1019.3 |
| 20260503071627 | 47 | 159 | 0.0 | 0.0 | 0.00 | 0.01 | 0.00 | 94 | 1019.2 |
| 20260503071125 | 47 | 159 | 0.0 | 0.0 | 0.00 | 0.01 | 0.00 | 94 | 1019.2 |
| 20260503070608 | 47 | 159 | 0.0 | 0.0 | 0.00 | 0.01 | 0.00 | 94 | 1019.2 |
| 20260503070107 | 47 | 159 | 0.0 | 0.0 | 0.00 | 0.01 | 0.00 | 93 | 1019.1 |
| 20260503054234 | 48 | 159 | 0.0 | 0.0 | 0.00 | 0.01 | 0.00 | 90 | 1019.0 |
| 20260503053714 | 48 | 159 | 0.0 | 0.0 | 0.00 | 0.01 | 0.00 | 90 | 1018.9 |
| 20260503053213 | 48 | 159 | 0.0 | 0.0 | 0.00 | 0.01 | 0.00 | 90 | 1018.8 |
| 20260503052710 | 48 | 159 | 0.0 | 0.0 | 0.00 | 0.01 | 0.00 | 89 | 1018.9 |
| 20260503052143 | 49 | 159 | 0.0 | 0.0 | 0.00 | 0.01 | 0.00 | 88 | 1018.7 |
| 20260503051640 | 49 | 159 | 0.0 | 0.0 | 0.00 | 0.01 | 0.00 | 88 | 1018.6 |
| 20260503051133 | 49 | 159 | 0.0 | 0.0 | 0.00 | 0.01 | 0.00 | 88 | 1018.5 |
| 20260503050632 | 49 | 159 | 0.0 | 0.0 | 0.00 | 0.01 | 0.00 | 87 | 1018.4 |
| 20260503050112 | 49 | 159 | 0.0 | 0.0 | 0.00 | 0.01 | 0.00 | 87 | 1018.4 |
| 20260503045610 | 49 | 159 | 0.0 | 0.0 | 0.00 | 0.01 | 0.01 | 86 | 1018.4 |
| 20260503045108 | 49 | 159 | 0.0 | 0.0 | 0.00 | 0.01 | 0.01 | 86 | 1018.3 |
| 20260503044555 | 49 | 159 | 0.0 | 0.0 | 0.00 | 0.01 | 0.01 | 86 | 1018.3 |
| 20260503044056 | 49 | 159 | 0.0 | 0.0 | 0.00 | 0.01 | 0.01 | 86 | 1018.2 |
| 20260503043533 | 49 | 159 | 0.0 | 0.0 | 0.00 | 0.01 | 0.01 | 85 | 1018.2 |
| 20260503043033 | 50 | 159 | 0.0 | 0.0 | 0.00 | 0.01 | 0.01 | 85 | 1018.1 |
| 20260503042532 | 50 | 159 | 0.0 | 0.0 | 0.00 | 0.01 | 0.01 | 84 | 1018.1 |
| 20260503035934 | 51 | 159 | 0.0 | 0.0 | 0.00 | 0.01 | 0.01 | 82 | 1017.8 |
| 20260503035431 | 51 | 159 | 0.0 | 0.0 | 0.00 | 0.01 | 0.01 | 81 | 1017.8 |
| 20260503034903 | 51 | 159 | 0.0 | 0.0 | 0.00 | 0.01 | 0.01 | 81 | 1017.8 |
| 20260503034401 | 52 | 159 | 0.0 | 0.0 | 0.00 | 0.01 | 0.01 | 80 | 1017.8 |
| 20260503033835 | 52 | 159 | 0.0 | 0.0 | 0.00 | 0.01 | 0.01 | 80 | 1017.7 |
| 20260503033312 | 52 | 159 | 0.0 | 0.0 | 0.00 | 0.01 | 0.01 | 79 | 1017.8 |
| 20260503032812 | 52 | 159 | 0.0 | 0.0 | 0.00 | 0.01 | 0.01 | 78 | 1017.8 |
| 20260503032247 | 53 | 159 | 0.0 | 0.0 | 0.00 | 0.01 | 0.01 | 77 | 1017.8 |
| 20260503031722 | 53 | 159 | 0.0 | 0.0 | 0.00 | 0.01 | 0.01 | 77 | 1017.8 |
| 20260503031156 | 53 | 159 | 0.0 | 0.0 | 0.00 | 0.01 | 0.01 | 76 | 1017.7 |
| 20260503030640 | 53 | 159 | 0.0 | 0.0 | 0.00 | 0.01 | 0.01 | 76 | 1017.7 |
| 20260503025618 | 53 | 159 | 0.0 | 0.0 | 0.00 | 0.01 | 0.01 | 75 | 1017.6 |
| 20260503025117 | 54 | 159 | 0.0 | 0.0 | 0.00 | 0.01 | 0.01 | 74 | 1017.6 |
| 20260503024549 | 54 | 159 | 0.0 | 0.0 | 0.00 | 0.01 | 0.01 | 73 | 1017.5 |
| 20260503024025 | 55 | 159 | 0.0 | 0.0 | 0.00 | 0.01 | 0.01 | 72 | 1017.5 |
| 20260503023509 | 55 | 159 | 0.0 | 0.0 | 0.00 | 0.01 | 0.01 | 71 | 1017.5 |
| 20260503022510 | 55 | 159 | 0.0 | 0.0 | 0.00 | 0.01 | 0.01 | 69 | 1017.3 |
| 20260503021944 | 55 | 159 | 0.0 | 0.0 | 0.00 | 0.01 | 0.01 | 67 | 1017.3 |
| 20260503021425 | 56 | 159 | 0.0 | 0.0 | 0.00 | 0.01 | 0.01 | 66 | 1017.2 |
| 20260503020423 | 56 | 159 | 0.0 | 0.0 | 0.00 | 0.02 | 0.01 | 65 | 1017.1 |
| 20260503015916 | 57 | 159 | 0.0 | 0.0 | 0.00 | 0.02 | 0.01 | 64 | 1017.0 |
| 20260503015416 | 57 | 159 | 0.0 | 0.0 | 0.00 | 0.02 | 0.01 | 64 | 1017.0 |
| 20260503014915 | 57 | 159 | 0.0 | 0.0 | 0.00 | 0.02 | 0.01 | 63 | 1016.9 |
| 20260503013858 | 58 | 159 | 0.0 | 0.0 | 0.00 | 0.02 | 0.01 | 61 | 1016.7 |
| 20260503013333 | 58 | 159 | 0.0 | 0.0 | 0.00 | 0.02 | 0.01 | 59 | 1016.7 |
| 20260503012822 | 59 | 159 | 0.0 | 0.0 | 0.00 | 0.03 | 0.01 | 59 | 1016.6 |
| 20260503012320 | 59 | 159 | 0.0 | 0.0 | 0.00 | 0.03 | 0.01 | 56 | 1016.5 |
| 20260503011830 | 59 | 159 | 0.0 | 0.0 | 0.00 | 0.03 | 0.01 | 56 | 1016.4 |
| 20260503011315 | 60 | 159 | 0.0 | 0.0 | 0.00 | 0.04 | 0.01 | 54 | 1016.4 |
| 20260503010814 | 60 | 159 | 0.0 | 0.0 | 0.00 | 0.04 | 0.01 | 52 | 1016.4 |
| 20260503010255 | 60 | 159 | 0.0 | 0.0 | 0.00 | 0.04 | 0.01 | 51 | 1016.3 |
| 20260503005754 | 61 | 159 | 0.0 | 0.0 | 0.00 | 0.04 | 0.01 | 50 | 1016.3 |
| 20260503005245 | 61 | 159 | 0.0 | 0.0 | 0.00 | 0.04 | 0.01 | 49 | 1016.2 |
| 20260503004223 | 62 | 159 | 0.0 | 0.0 | 0.00 | 0.04 | 0.01 | 46 | 1016.1 |
| 20260503003724 | 62 | 159 | 0.0 | 0.0 | 0.00 | 0.04 | 0.01 | 44 | 1016.1 |
| 20260503003220 | 63 | 159 | 0.0 | 0.0 | 0.00 | 0.04 | 0.01 | 44 | 1015.9 |
| 20260503002718 | 63 | 159 | 0.0 | 0.0 | 0.00 | 0.04 | 0.01 | 46 | 1015.8 |
| 20260503002214 | 63 | 159 | 0.0 | 0.0 | 0.00 | 0.04 | 0.01 | 44 | 1015.7 |
| 20260503001714 | 63 | 159 | 0.0 | 0.0 | 0.00 | 0.04 | 0.01 | 43 | 1015.7 |
| 20260503001152 | 64 | 159 | 0.0 | 0.0 | 0.00 | 0.04 | 0.01 | 42 | 1015.6 |
| 20260503000647 | 64 | 159 | 0.0 | 0.0 | 0.00 | 0.04 | 0.01 | 44 | 1015.6 |
| 20260503000147 | 64 | 159 | 0.0 | 0.0 | 0.00 | 0.04 | 0.01 | 43 | 1015.5 |
| 20260502235629 | 64 | 159 | 0.0 | 0.0 | 0.00 | 0.04 | 0.01 | 47 | 1015.4 |
| 20260502235134 | 64 | 159 | 0.0 | 0.0 | 0.00 | 0.04 | 0.01 | 44 | 1015.4 |
| 20260502234548 | 65 | 159 | 0.0 | 0.0 | 0.00 | 0.04 | 0.01 | 48 | 1015.3 |
| 20260502233516 | 65 | 159 | 0.0 | 0.0 | 0.00 | 0.04 | 0.01 | 46 | 1015.2 |
| 20260502232423 | 65 | 159 | 0.0 | 1.0 | 0.00 | 0.04 | 0.01 | 40 | 1015.2 |
| 20260502231913 | 65 | 159 | 0.0 | 1.0 | 0.00 | 0.04 | 0.01 | 39 | 1015.1 |
| 20260502231410 | 66 | 159 | 0.0 | 0.0 | 0.00 | 0.04 | 0.01 | 48 | 1015.1 |
| 20260502230908 | 66 | 159 | 0.0 | 0.0 | 0.00 | 0.04 | 0.01 | 47 | 1015.1 |
| 20260502230404 | 67 | 159 | 0.0 | 0.0 | 0.00 | 0.04 | 0.01 | 46 | 1015.1 |
| 20260502225904 | 67 | 159 | 0.0 | 4.0 | 0.00 | 0.04 | 0.01 | 46 | 1015.1 |
| 20260502224906 | 67 | 157 | 0.0 | 4.0 | 0.00 | 0.04 | 0.01 | 40 | 1015.1 |
| 20260502224344 | 67 | 157 | 0.0 | 4.0 | 0.00 | 0.04 | 0.01 | 39 | 1015.1 |
| 20260502223339 | 67 | 161 | 0.0 | 1.0 | 0.00 | 0.04 | 0.01 | 39 | 1015.1 |
| 20260502222840 | 67 | 161 | 0.0 | 0.0 | 0.00 | 0.04 | 0.01 | 38 | 1015.1 |
| 20260502222328 | 67 | 160 | 0.0 | 0.0 | 0.00 | 0.04 | 0.01 | 40 | 1015.1 |
| 20260502221808 | 67 | 160 | 0.0 | 4.0 | 0.00 | 0.04 | 0.01 | 41 | 1015.1 |
| 20260502220733 | 68 | 157 | 0.0 | 1.0 | 0.00 | 0.04 | 0.01 | 41 | 1015.0 |
| 20260502215708 | 68 | 155 | 0.0 | 4.0 | 0.00 | 0.04 | 0.01 | 38 | 1014.9 |
| 20260502215145 | 68 | 154 | 0.0 | 4.0 | 0.00 | 0.04 | 0.01 | 38 | 1014.8 |
| 20260502214647 | 68 | 82 | 0.0 | 0.0 | 0.00 | 0.04 | 0.01 | 37 | 1014.9 |